Preview of NWS' New Version of Forecast
This preview is not operational and should not be used for support decisions.

Regional Weather Roundup (RWR)

Issued by National Weather Service (NWS)

                            
000
ASUS43 KTOP 201059
RWRKS 

WEATHER ROUNDUP FOR KANSAS
NATIONAL WEATHER SERVICE GOODLAND KS
600 AM CDT TUE AUG 20 2019

NOTE:  "FAIR" INDICATES FEW OR NO CLOUDS BELOW 12,000 FEET WITH NO
SIGNIFICANT WEATHER AND/OR OBSTRUCTIONS TO VISIBILITY.

KSZ001>006-013>018-027>032-041>047-201200-
NORTHWEST KANSAS
  
CITY           SKY/WX    TMP DP  RH WIND       PRES   REMARKS
GOODLAND       PTCLDY    61  58  90 CALM      30.00S                  
HAYS           CLEAR     73  69  87 SE7       29.86F                  
HILL CITY      CLEAR     73  66  78 S5        29.95S                  
RUSSELL        CLEAR     77  68  73 S14       29.94R                  
$$

KSZ061>065-074>080-084>089-201200-
SOUTHWEST KANSAS
  
CITY           SKY/WX    TMP DP  RH WIND       PRES   REMARKS
DODGE CITY     CLEAR     79  64  60 S12       29.99S                  
GARDEN CITY    CLEAR     72  62  71 SE7       29.99S                  
GREAT BEND     CLEAR     77  69  76 S12       29.97S                  
LIBERAL        CLEAR     71  64  78 S9        30.01F                  
$$

KSZ066>073-081>083-090>101-201200-
SOUTHEAST KANSAS
  
CITY           SKY/WX    TMP DP  RH WIND       PRES   REMARKS
CHANUTE        CLEAR     78  74  87 S9        29.98S                  
COFFEYVILLE    CLEAR     76  73  91 CALM      29.97S                  
HUTCHINSON     CLEAR     78  70  76 S6        29.97S                  
MEDICINE LODGE   N/A     77  69  76 SE7       29.98R                  
NEWTON         CLEAR     79  70  74 S14       29.98S                  
PARSONS        CLEAR     76  74  93 CALM      29.99F                  
WICHITA INTL   PTCLDY    77  70  79 S8        29.97S                  
WICHITA JABRA  CLEAR     81  69  67 S14       29.97S                  
WICHITA MCCONL CLEAR     79  67  67 S12       29.98R                  
$$

KSZ007>012-019>026-033>040-048>060-102>105-201200-
NORTHEAST KANSAS
  
CITY           SKY/WX    TMP DP  RH WIND       PRES   REMARKS
CONCORDIA      CLEAR     81  72  74 S18       29.89F                  
EMPORIA        CLEAR     76  73  91 S12       29.95F                  
LAWRENCE       CLEAR     82  73  74 SW8       29.92S                  
MANHATTAN      CLEAR     80  73  79 SW12      29.91S                  
OLATHE IND     CLEAR     78  73  84 S10       29.95S                  
OLATHE EXE     CLEAR     77  74  90 S9        29.95R                  
SALINA         CLEAR     80  70  71 S13       29.92F                  
TOPEKA BILLARD CLEAR     81  72  74 SW5       29.91R                  
TOPEKA FORBES  CLEAR     80  73  79 S10       29.93R                  
$$